Time,TemperatureF,DewpointF,PressureIn,WindDirection,WindDirectionDegrees,WindSpeedMPH,WindSpeedGustMPH,Humidity,HourlyPrecipIn,Conditions,Clouds,dailyrainin,SoftwareType,DateUTC
2013-04-06 00:02:00,29.6,-99.9,0.00,South,180,2.7,5.0,-99,0.00,NA,NA,-99.99,WeatherLink_script,2013-04-06 04:02:00,
2013-04-06 00:07:00,29.7,-99.9,0.00,South,180,3.9,8.0,-99,0.00,NA,NA,-99.99,WeatherLink_script,2013-04-06 04:07:00,
2013-04-06 00:12:00,29.6,-99.9,0.00,South,180,4.0,8.0,-99,0.00,NA,NA,-99.99,WeatherLink_script,2013-04-06 04:12:00,
2013-04-06 00:18:00,29.5,-99.9,0.00,South,180,4.5,8.0,-99,0.00,NA,NA,-99.99,WeatherLink_script,2013-04-06 04:18:00,
2013-04-06 00:23:00,29.3,-99.9,0.00,South,180,6.2,7.0,-99,0.00,NA,NA,-99.99,WeatherLink_script,2013-04-06 04:23:00,
2013-04-06 00:28:00,29.3,-99.9,0.00,South,180,6.3,8.0,-99,0.00,NA,NA,-99.99,WeatherLink_script,2013-04-06 04:28:00,
2013-04-06 00:34:00,28.8,-99.9,0.00,South,180,6.6,10.0,-99,0.00,NA,NA,-99.99,WeatherLink_script,2013-04-06 04:34:00,
2013-04-06 00:39:00,28.8,-99.9,0.00,South,180,7.4,10.0,-99,0.00,NA,NA,-99.99,WeatherLink_script,2013-04-06 04:39:00,
2013-04-06 00:44:00,28.9,-99.9,0.00,South,180,2.2,12.0,-99,0.00,NA,NA,-99.99,WeatherLink_script,2013-04-06 04:44:00,
2013-04-06 00:50:00,29.0,-99.9,0.00,South,180,6.4,12.0,-99,0.00,NA,NA,-99.99,WeatherLink_script,2013-04-06 04:50:00,
2013-04-06 00:55:00,28.9,-99.9,0.00,South,180,1.4,12.0,-99,0.00,NA,NA,-99.99,WeatherLink_script,2013-04-06 04:55:00,
2013-04-06 01:01:00,28.8,-99.9,0.00,South,180,3.3,6.0,-99,0.00,NA,NA,-99.99,WeatherLink_script,2013-04-06 05:01:00,
2013-04-06 01:09:00,28.4,-99.9,0.00,South,180,4.8,13.0,-99,0.00,NA,NA,-99.99,WeatherLink_script,2013-04-06 05:09:00,
2013-04-06 01:15:00,28.3,-99.9,0.00,South,180,9.1,14.0,-99,0.00,NA,NA,-99.99,WeatherLink_script,2013-04-06 05:15:00,
2013-04-06 01:20:00,28.1,-99.9,0.00,South,180,9.9,14.0,-99,0.00,NA,NA,-99.99,WeatherLink_script,2013-04-06 05:20:00,
2013-04-06 01:26:00,28.0,-99.9,0.00,South,180,7.1,14.0,-99,0.00,NA,NA,-99.99,WeatherLink_script,2013-04-06 05:26:00,
2013-04-06 01:32:00,27.7,-99.9,0.00,South,180,6.1,9.0,-99,0.00,NA,NA,-99.99,WeatherLink_script,2013-04-06 05:32:00,
2013-04-06 01:37:00,27.4,-99.9,0.00,South,180,5.9,9.0,-99,0.00,NA,NA,-99.99,WeatherLink_script,2013-04-06 05:37:00,
2013-04-06 01:42:00,27.4,-99.9,0.00,South,180,6.9,10.0,-99,0.00,NA,NA,-99.99,WeatherLink_script,2013-04-06 05:42:00,
2013-04-06 01:48:00,27.2,-99.9,0.00,South,180,4.1,10.0,-99,0.00,NA,NA,-99.99,WeatherLink_script,2013-04-06 05:48:00,
2013-04-06 01:53:00,26.7,-99.9,0.00,South,180,5.9,17.0,-99,0.00,NA,NA,-99.99,WeatherLink_script,2013-04-06 05:53:00,
2013-04-06 01:58:00,26.5,-99.9,0.00,South,180,11.4,17.0,-99,0.00,NA,NA,-99.99,WeatherLink_script,2013-04-06 05:58:00,
2013-04-06 02:04:00,26.2,-99.9,0.00,South,180,7.5,17.0,-99,0.00,NA,NA,-99.99,WeatherLink_script,2013-04-06 06:04:00,
2013-04-06 02:09:00,26.1,-99.9,0.00,South,180,6.1,9.0,-99,0.00,NA,NA,-99.99,WeatherLink_script,2013-04-06 06:09:00,
2013-04-06 02:14:00,25.8,-99.9,0.00,South,180,6.7,11.0,-99,0.00,NA,NA,-99.99,WeatherLink_script,2013-04-06 06:14:00,
2013-04-06 02:19:00,25.7,-99.9,0.00,South,180,6.4,13.0,-99,0.00,NA,NA,-99.99,WeatherLink_script,2013-04-06 06:19:00,
2013-04-06 02:25:00,25.7,-99.9,0.00,South,180,6.6,13.0,-99,0.00,NA,NA,-99.99,WeatherLink_script,2013-04-06 06:25:00,
2013-04-06 02:30:00,25.5,-99.9,0.00,South,180,6.5,13.0,-99,0.00,NA,NA,-99.99,WeatherLink_script,2013-04-06 06:30:00,
2013-04-06 02:35:00,25.6,-99.9,0.00,South,180,4.6,9.0,-99,0.00,NA,NA,-99.99,WeatherLink_script,2013-04-06 06:35:00,
2013-04-06 02:41:00,25.4,-99.9,0.00,South,180,7.0,12.0,-99,0.00,NA,NA,-99.99,WeatherLink_script,2013-04-06 06:41:00,
2013-04-06 02:46:00,25.2,-99.9,0.00,South,180,6.8,12.0,-99,0.00,NA,NA,-99.99,WeatherLink_script,2013-04-06 06:46:00,
2013-04-06 02:51:00,25.1,-99.9,0.00,South,180,7.7,12.0,-99,0.00,NA,NA,-99.99,WeatherLink_script,2013-04-06 06:51:00,
2013-04-06 02:57:00,25.2,-99.9,0.00,South,180,7.1,13.0,-99,0.00,NA,NA,-99.99,WeatherLink_script,2013-04-06 06:57:00,
2013-04-06 03:02:00,25.2,-99.9,0.00,South,180,7.0,13.0,-99,0.00,NA,NA,-99.99,WeatherLink_script,2013-04-06 07:02:00,
2013-04-06 03:07:00,25.2,-99.9,0.00,South,180,7.3,13.0,-99,0.00,NA,NA,-99.99,WeatherLink_script,2013-04-06 07:07:00,
2013-04-06 03:12:00,25.2,-99.9,0.00,South,180,6.5,13.0,-99,0.00,NA,NA,-99.99,WeatherLink_script,2013-04-06 07:12:00,
2013-04-06 03:18:00,25.1,-99.9,0.00,South,180,5.9,13.0,-99,0.00,NA,NA,-99.99,WeatherLink_script,2013-04-06 07:18:00,
2013-04-06 03:23:00,24.9,-99.9,0.00,South,180,6.5,15.0,-99,0.00,NA,NA,-99.99,WeatherLink_script,2013-04-06 07:23:00,
2013-04-06 03:29:00,24.6,-99.9,0.00,South,180,8.8,15.0,-99,0.00,NA,NA,-99.99,WeatherLink_script,2013-04-06 07:29:00,
2013-04-06 03:34:00,24.4,-99.9,0.00,South,180,7.1,15.0,-99,0.00,NA,NA,-99.99,WeatherLink_script,2013-04-06 07:34:00,
2013-04-06 03:39:00,24.2,-99.9,0.00,South,180,7.7,11.0,-99,0.00,NA,NA,-99.99,WeatherLink_script,2013-04-06 07:39:00,
2013-04-06 03:45:00,24.0,-99.9,0.00,South,180,8.9,15.0,-99,0.00,NA,NA,-99.99,WeatherLink_script,2013-04-06 07:45:00,
2013-04-06 03:50:00,23.9,-99.9,0.00,South,180,5.7,15.0,-99,0.00,NA,NA,-99.99,WeatherLink_script,2013-04-06 07:50:00,
2013-04-06 03:56:00,23.6,-99.9,0.00,South,180,7.7,15.0,-99,0.00,NA,NA,-99.99,WeatherLink_script,2013-04-06 07:56:00,
2013-04-06 04:01:00,23.2,-99.9,0.00,South,180,4.5,9.0,-99,0.00,NA,NA,-99.99,WeatherLink_script,2013-04-06 08:01:00,
2013-04-06 04:07:00,23.0,-99.9,0.00,South,180,5.8,10.0,-99,0.00,NA,NA,-99.99,WeatherLink_script,2013-04-06 08:07:00,
2013-04-06 04:12:00,22.5,-99.9,0.00,South,180,10.2,16.0,-99,0.00,NA,NA,-99.99,WeatherLink_script,2013-04-06 08:12:00,
2013-04-06 04:17:00,22.3,-99.9,0.00,South,180,8.7,16.0,-99,0.00,NA,NA,-99.99,WeatherLink_script,2013-04-06 08:17:00,
2013-04-06 04:23:00,22.3,-99.9,0.00,South,180,7.0,17.0,-99,0.00,NA,NA,-99.99,WeatherLink_script,2013-04-06 08:23:00,
2013-04-06 04:28:00,22.1,-99.9,0.00,South,180,5.9,17.0,-99,0.00,NA,NA,-99.99,WeatherLink_script,2013-04-06 08:28:00,
2013-04-06 04:36:00,21.7,-99.9,0.00,South,180,11.3,19.0,-99,0.00,NA,NA,-99.99,WeatherLink_script,2013-04-06 08:36:00,
2013-04-06 04:42:00,21.5,-99.9,0.00,South,180,7.2,19.0,-99,0.00,NA,NA,-99.99,WeatherLink_script,2013-04-06 08:42:00,
2013-04-06 04:47:00,21.5,-99.9,0.00,South,180,6.2,19.0,-99,0.00,NA,NA,-99.99,WeatherLink_script,2013-04-06 08:47:00,
2013-04-06 04:52:00,21.4,-99.9,0.00,South,180,9.3,12.0,-99,0.00,NA,NA,-99.99,WeatherLink_script,2013-04-06 08:52:00,
2013-04-06 04:57:00,21.3,-99.9,0.00,South,180,7.7,12.0,-99,0.00,NA,NA,-99.99,WeatherLink_script,2013-04-06 08:57:00,
2013-04-06 05:03:00,21.4,-99.9,0.00,South,180,5.5,12.0,-99,0.00,NA,NA,-99.99,WeatherLink_script,2013-04-06 09:03:00,
2013-04-06 05:08:00,21.5,-99.9,0.00,South,180,6.4,12.0,-99,0.00,NA,NA,-99.99,WeatherLink_script,2013-04-06 09:08:00,
2013-04-06 05:13:00,21.6,-99.9,0.00,South,180,4.6,9.0,-99,0.00,NA,NA,-99.99,WeatherLink_script,2013-04-06 09:13:00,
2013-04-06 05:19:00,21.6,-99.9,0.00,South,180,7.3,10.0,-99,0.00,NA,NA,-99.99,WeatherLink_script,2013-04-06 09:19:00,
2013-04-06 05:24:00,21.3,-99.9,0.00,South,180,6.9,12.0,-99,0.00,NA,NA,-99.99,WeatherLink_script,2013-04-06 09:24:00,
2013-04-06 05:29:00,20.9,-99.9,0.00,South,180,7.7,12.0,-99,0.00,NA,NA,-99.99,WeatherLink_script,2013-04-06 09:29:00,
2013-04-06 05:35:00,20.9,-99.9,0.00,South,180,5.5,12.0,-99,0.00,NA,NA,-99.99,WeatherLink_script,2013-04-06 09:35:00,
2013-04-06 05:40:00,21.0,-99.9,0.00,South,180,5.7,7.0,-99,0.00,NA,NA,-99.99,WeatherLink_script,2013-04-06 09:40:00,
2013-04-06 05:48:00,21.1,-99.9,0.00,South,180,7.1,10.0,-99,0.00,NA,NA,-99.99,WeatherLink_script,2013-04-06 09:48:00,
2013-04-06 05:53:00,21.0,-99.9,0.00,South,180,6.0,10.0,-99,0.00,NA,NA,-99.99,WeatherLink_script,2013-04-06 09:53:00,
2013-04-06 06:01:00,20.9,-99.9,0.00,South,180,6.1,10.0,-99,0.00,NA,NA,-99.99,WeatherLink_script,2013-04-06 10:01:00,
2013-04-06 06:06:00,20.8,-99.9,0.00,South,180,4.4,5.0,-99,0.00,NA,NA,-99.99,WeatherLink_script,2013-04-06 10:06:00,
2013-04-06 06:14:00,20.7,-99.9,0.00,South,180,4.8,6.0,-99,0.00,NA,NA,-99.99,WeatherLink_script,2013-04-06 10:14:00,
2013-04-06 06:20:00,20.5,-99.9,0.00,South,180,3.4,7.0,-99,0.00,NA,NA,-99.99,WeatherLink_script,2013-04-06 10:20:00,
2013-04-06 06:25:00,20.6,-99.9,0.00,South,180,3.6,8.0,-99,0.00,NA,NA,-99.99,WeatherLink_script,2013-04-06 10:25:00,
2013-04-06 06:30:00,20.9,-99.9,0.00,South,180,4.9,8.0,-99,0.00,NA,NA,-99.99,WeatherLink_script,2013-04-06 10:30:00,
2013-04-06 06:36:00,21.5,-99.9,0.00,South,180,5.8,9.0,-99,0.00,NA,NA,-99.99,WeatherLink_script,2013-04-06 10:36:00,
2013-04-06 06:42:00,21.5,-99.9,0.00,South,180,6.7,9.0,-99,0.00,NA,NA,-99.99,WeatherLink_script,2013-04-06 10:42:00,
2013-04-06 06:47:00,21.7,-99.9,0.00,South,180,6.7,15.0,-99,0.00,NA,NA,-99.99,WeatherLink_script,2013-04-06 10:47:00,
2013-04-06 06:52:00,21.9,-99.9,0.00,South,180,7.2,15.0,-99,0.00,NA,NA,-99.99,WeatherLink_script,2013-04-06 10:52:00,
2013-04-06 06:58:00,21.8,-99.9,0.00,South,180,7.1,15.0,-99,0.00,NA,NA,-99.99,WeatherLink_script,2013-04-06 10:58:00,
2013-04-06 07:03:00,21.8,-99.9,0.00,South,180,10.7,14.0,-99,0.00,NA,NA,-99.99,WeatherLink_script,2013-04-06 11:03:00,
2013-04-06 07:09:00,21.7,-99.9,0.00,South,180,9.9,17.0,-99,0.00,NA,NA,-99.99,WeatherLink_script,2013-04-06 11:09:00,
2013-04-06 07:14:00,21.6,-99.9,0.00,South,180,9.1,17.0,-99,0.00,NA,NA,-99.99,WeatherLink_script,2013-04-06 11:14:00,
2013-04-06 07:22:00,22.1,-99.9,0.00,South,180,9.3,17.0,-99,0.00,NA,NA,-99.99,WeatherLink_script,2013-04-06 11:22:00,
2013-04-06 07:28:00,22.9,-99.9,0.00,South,180,5.7,17.0,-99,0.00,NA,NA,-99.99,WeatherLink_script,2013-04-06 11:28:00,
2013-04-06 07:33:00,22.6,-99.9,0.00,South,180,12.5,17.0,-99,0.00,NA,NA,-99.99,WeatherLink_script,2013-04-06 11:33:00,
2013-04-06 07:38:00,22.5,-99.9,0.00,South,180,11.9,20.0,-99,0.00,NA,NA,-99.99,WeatherLink_script,2013-04-06 11:38:00,
2013-04-06 07:46:00,23.5,-99.9,0.00,South,180,8.8,20.0,-99,0.00,NA,NA,-99.99,WeatherLink_script,2013-04-06 11:46:00,
2013-04-06 07:52:00,23.1,-99.9,0.00,South,180,11.0,20.0,-99,0.00,NA,NA,-99.99,WeatherLink_script,2013-04-06 11:52:00,
2013-04-06 07:57:00,23.5,-99.9,0.00,South,180,11.1,16.0,-99,0.00,NA,NA,-99.99,WeatherLink_script,2013-04-06 11:57:00,
2013-04-06 08:02:00,23.1,-99.9,0.00,South,180,9.2,22.0,-99,0.00,NA,NA,-99.99,WeatherLink_script,2013-04-06 12:02:00,
2013-04-06 08:08:00,24.3,-99.9,0.00,South,180,5.8,22.0,-99,0.00,NA,NA,-99.99,WeatherLink_script,2013-04-06 12:08:00,
2013-04-06 08:13:00,24.1,-99.9,0.00,South,180,7.0,22.0,-99,0.00,NA,NA,-99.99,WeatherLink_script,2013-04-06 12:13:00,
2013-04-06 08:18:00,23.9,-99.9,0.00,South,180,6.9,15.0,-99,0.00,NA,NA,-99.99,WeatherLink_script,2013-04-06 12:18:00,
2013-04-06 08:24:00,24.3,-99.9,0.00,South,180,9.0,15.0,-99,0.00,NA,NA,-99.99,WeatherLink_script,2013-04-06 12:24:00,
2013-04-06 08:29:00,25.3,-99.9,0.00,South,180,5.8,15.0,-99,0.00,NA,NA,-99.99,WeatherLink_script,2013-04-06 12:29:00,
2013-04-06 08:35:00,25.7,-99.9,0.00,South,180,7.1,12.0,-99,0.00,NA,NA,-99.99,WeatherLink_script,2013-04-06 12:35:00,
2013-04-06 08:40:00,25.7,-99.9,0.00,South,180,5.0,15.0,-99,0.00,NA,NA,-99.99,WeatherLink_script,2013-04-06 12:40:00,
2013-04-06 08:45:00,25.7,-99.9,0.00,South,180,8.4,15.0,-99,0.00,NA,NA,-99.99,WeatherLink_script,2013-04-06 12:45:00,
2013-04-06 08:50:00,25.6,-99.9,0.00,South,180,4.6,15.0,-99,0.00,NA,NA,-99.99,WeatherLink_script,2013-04-06 12:50:00,
2013-04-06 08:56:00,26.4,-99.9,0.00,South,180,4.7,17.0,-99,0.00,NA,NA,-99.99,WeatherLink_script,2013-04-06 12:56:00,
2013-04-06 09:01:00,26.2,-99.9,0.00,South,180,8.8,17.0,-99,0.00,NA,NA,-99.99,WeatherLink_script,2013-04-06 13:01:00,
2013-04-06 09:09:00,27.2,-99.9,0.00,South,180,6.5,17.0,-99,0.00,NA,NA,-99.99,WeatherLink_script,2013-04-06 13:09:00,
2013-04-06 09:14:00,26.7,-99.9,0.00,South,180,8.3,14.0,-99,0.00,NA,NA,-99.99,WeatherLink_script,2013-04-06 13:14:00,
2013-04-06 09:20:00,25.7,-99.9,0.00,South,180,12.2,15.0,-99,0.00,NA,NA,-99.99,WeatherLink_script,2013-04-06 13:20:00,
2013-04-06 09:25:00,26.7,-99.9,0.00,South,180,10.0,15.0,-99,0.00,NA,NA,-99.99,WeatherLink_script,2013-04-06 13:25:00,
2013-04-06 09:30:00,25.7,-99.9,0.00,South,180,7.7,20.0,-99,0.00,NA,NA,-99.99,WeatherLink_script,2013-04-06 13:30:00,
2013-04-06 09:36:00,27.2,-99.9,0.00,South,180,4.0,20.0,-99,0.00,NA,NA,-99.99,WeatherLink_script,2013-04-06 13:36:00,
2013-04-06 09:44:00,27.1,-99.9,0.00,South,180,8.7,11.0,-99,0.00,NA,NA,-99.99,WeatherLink_script,2013-04-06 13:44:00,
2013-04-06 09:49:00,28.0,-99.9,0.00,South,180,7.4,14.0,-99,0.00,NA,NA,-99.99,WeatherLink_script,2013-04-06 13:49:00,
2013-04-06 09:54:00,27.4,-99.9,0.00,South,180,9.7,14.0,-99,0.00,NA,NA,-99.99,WeatherLink_script,2013-04-06 13:54:00,
2013-04-06 10:02:00,28.3,-99.9,0.00,South,180,7.3,14.0,-99,0.00,NA,NA,-99.99,WeatherLink_script,2013-04-06 14:02:00,
2013-04-06 10:08:00,28.0,-99.9,0.00,South,180,10.3,13.0,-99,0.00,NA,NA,-99.99,WeatherLink_script,2013-04-06 14:08:00,
2013-04-06 10:13:00,28.7,-99.9,0.00,South,180,7.1,13.0,-99,0.00,NA,NA,-99.99,WeatherLink_script,2013-04-06 14:13:00,
2013-04-06 10:19:00,28.5,-99.9,0.00,South,180,7.5,13.0,-99,0.00,NA,NA,-99.99,WeatherLink_script,2013-04-06 14:19:00,
2013-04-06 10:24:00,28.2,-99.9,0.00,South,180,10.0,17.0,-99,0.00,NA,NA,-99.99,WeatherLink_script,2013-04-06 14:24:00,
2013-04-06 10:29:00,28.1,-99.9,0.00,South,180,10.7,17.0,-99,0.00,NA,NA,-99.99,WeatherLink_script,2013-04-06 14:29:00,
2013-04-06 10:35:00,28.4,-99.9,0.00,South,180,9.8,19.0,-99,0.00,NA,NA,-99.99,WeatherLink_script,2013-04-06 14:35:00,
2013-04-06 10:40:00,29.7,-99.9,0.00,South,180,8.7,19.0,-99,0.00,NA,NA,-99.99,WeatherLink_script,2013-04-06 14:40:00,
2013-04-06 10:45:00,29.3,-99.9,0.00,South,180,8.3,19.0,-99,0.00,NA,NA,-99.99,WeatherLink_script,2013-04-06 14:45:00,
2013-04-06 10:50:00,30.0,-99.9,0.00,South,180,8.9,12.0,-99,0.00,NA,NA,-99.99,WeatherLink_script,2013-04-06 14:50:00,
2013-04-06 10:56:00,30.2,-99.9,0.00,South,180,7.2,12.0,-99,0.00,NA,NA,-99.99,WeatherLink_script,2013-04-06 14:56:00,
2013-04-06 11:01:00,30.0,-99.9,0.00,South,180,10.3,16.0,-99,0.00,NA,NA,-99.99,WeatherLink_script,2013-04-06 15:01:00,
2013-04-06 11:06:00,30.2,-99.9,0.00,South,180,7.3,16.0,-99,0.00,NA,NA,-99.99,WeatherLink_script,2013-04-06 15:06:00,
2013-04-06 11:12:00,32.2,-99.9,0.00,South,180,5.5,16.0,-99,0.00,NA,NA,-99.99,WeatherLink_script,2013-04-06 15:12:00,
2013-04-06 11:17:00,32.5,-99.9,0.00,South,180,5.7,10.0,-99,0.00,NA,NA,-99.99,WeatherLink_script,2013-04-06 15:17:00,
2013-04-06 11:23:00,31.3,-99.9,0.00,South,180,8.2,12.0,-99,0.00,NA,NA,-99.99,WeatherLink_script,2013-04-06 15:23:00,
2013-04-06 11:28:00,30.1,-99.9,0.00,South,180,11.6,15.0,-99,0.00,NA,NA,-99.99,WeatherLink_script,2013-04-06 15:28:00,
2013-04-06 11:33:00,30.3,-99.9,0.00,South,180,9.5,15.0,-99,0.00,NA,NA,-99.99,WeatherLink_script,2013-04-06 15:33:00,
2013-04-06 11:39:00,30.6,-99.9,0.00,South,180,10.7,15.0,-99,0.00,NA,NA,-99.99,WeatherLink_script,2013-04-06 15:39:00,
2013-04-06 11:44:00,29.7,-99.9,0.00,South,180,12.5,18.0,-99,0.00,NA,NA,-99.99,WeatherLink_script,2013-04-06 15:44:00,
2013-04-06 11:50:00,31.2,-99.9,0.00,South,180,8.7,18.0,-99,0.00,NA,NA,-99.99,WeatherLink_script,2013-04-06 15:50:00,
2013-04-06 11:55:00,31.3,-99.9,0.00,South,180,9.0,18.0,-99,0.00,NA,NA,-99.99,WeatherLink_script,2013-04-06 15:55:00,
2013-04-06 12:00:00,31.4,-99.9,0.00,South,180,8.3,11.0,-99,0.00,NA,NA,-99.99,WeatherLink_script,2013-04-06 16:00:00,
2013-04-06 12:06:00,31.3,-99.9,0.00,South,180,8.1,14.0,-81,0.00,NA,NA,-99.99,WeatherLink_script,2013-04-06 16:06:00,
2013-04-06 12:12:00,33.0,-99.9,0.00,South,180,6.4,16.0,-99,0.00,NA,NA,-99.99,WeatherLink_script,2013-04-06 16:12:00,
2013-04-06 12:17:00,33.1,-99.9,0.00,South,180,6.6,16.0,-99,0.00,NA,NA,-99.99,WeatherLink_script,2013-04-06 16:17:00,
2013-04-06 12:22:00,34.2,-99.9,0.00,South,180,6.5,16.0,-99,0.00,NA,NA,-99.99,WeatherLink_script,2013-04-06 16:22:00,
2013-04-06 12:28:00,32.9,-99.9,0.00,South,180,8.0,15.0,-99,0.00,NA,NA,-99.99,WeatherLink_script,2013-04-06 16:28:00,
2013-04-06 12:33:00,32.8,-99.9,0.00,South,180,9.1,15.0,-99,0.00,NA,NA,-99.99,WeatherLink_script,2013-04-06 16:33:00,
2013-04-06 12:39:00,33.4,-99.9,0.00,South,180,8.6,15.0,-99,0.00,NA,NA,-99.99,WeatherLink_script,2013-04-06 16:39:00,
2013-04-06 12:44:00,32.9,-99.9,0.00,South,180,7.0,9.0,-99,0.00,NA,NA,-99.99,WeatherLink_script,2013-04-06 16:44:00,
2013-04-06 12:50:00,33.6,-99.9,0.00,South,180,8.6,11.0,-99,0.00,NA,NA,-99.99,WeatherLink_script,2013-04-06 16:50:00,
2013-04-06 12:55:00,34.3,-99.9,0.00,South,180,8.6,11.0,-99,0.00,NA,NA,-99.99,WeatherLink_script,2013-04-06 16:55:00,
2013-04-06 13:00:00,34.6,-99.9,0.00,South,180,5.8,11.0,-99,0.00,NA,NA,-99.99,WeatherLink_script,2013-04-06 17:00:00,
2013-04-06 13:06:00,34.8,-99.9,0.00,South,180,6.3,9.0,-99,0.00,NA,NA,-99.99,WeatherLink_script,2013-04-06 17:06:00,
2013-04-06 13:14:00,35.0,-99.9,0.00,South,180,8.1,12.0,-99,0.00,NA,NA,-99.99,WeatherLink_script,2013-04-06 17:14:00,
2013-04-06 13:19:00,34.5,-99.9,0.00,South,180,6.6,13.0,-99,0.00,NA,NA,-99.99,WeatherLink_script,2013-04-06 17:19:00,
2013-04-06 13:24:00,35.8,-99.9,0.00,South,180,7.1,13.0,-99,0.00,NA,NA,-99.99,WeatherLink_script,2013-04-06 17:24:00,
2013-04-06 13:30:00,37.4,-99.9,0.00,South,180,3.3,13.0,-99,0.00,NA,NA,-99.99,WeatherLink_script,2013-04-06 17:30:00,
2013-04-06 13:35:00,37.5,-99.9,0.00,South,180,8.3,11.0,-99,0.00,NA,NA,-99.99,WeatherLink_script,2013-04-06 17:35:00,
2013-04-06 13:41:00,38.6,-99.9,0.00,South,180,8.8,12.0,-99,0.00,NA,NA,-99.99,WeatherLink_script,2013-04-06 17:41:00,
2013-04-06 13:47:00,37.4,-99.9,0.00,South,180,7.4,12.0,-99,0.00,NA,NA,-99.99,WeatherLink_script,2013-04-06 17:47:00,
2013-04-06 13:52:00,36.0,-99.9,0.00,South,180,6.1,12.0,-99,0.00,NA,NA,-99.99,WeatherLink_script,2013-04-06 17:52:00,
2013-04-06 13:57:00,40.3,-99.9,0.00,South,180,2.3,4.0,-99,0.00,NA,NA,-99.99,WeatherLink_script,2013-04-06 17:57:00,
2013-04-06 14:03:00,39.7,-99.9,0.00,South,180,3.7,6.0,-99,0.00,NA,NA,-99.99,WeatherLink_script,2013-04-06 18:03:00,
2013-04-06 14:09:00,39.6,-99.9,0.00,South,180,2.9,11.0,-99,0.00,NA,NA,-99.99,WeatherLink_script,2013-04-06 18:09:00,
2013-04-06 14:14:00,38.3,-99.9,0.00,South,180,4.7,11.0,-99,0.00,NA,NA,-99.99,WeatherLink_script,2013-04-06 18:14:00,
2013-04-06 14:22:00,40.0,-99.9,0.00,South,180,7.5,9.0,-99,0.00,NA,NA,-99.99,WeatherLink_script,2013-04-06 18:22:00,
2013-04-06 14:28:00,38.5,-99.9,0.00,South,180,3.2,11.0,-99,0.00,NA,NA,-99.99,WeatherLink_script,2013-04-06 18:28:00,
2013-04-06 14:33:00,40.5,-99.9,0.00,South,180,6.1,11.0,-99,0.00,NA,NA,-99.99,WeatherLink_script,2013-04-06 18:33:00,
2013-04-06 14:38:00,39.6,-99.9,0.00,South,180,3.9,11.0,-99,0.00,NA,NA,-99.99,WeatherLink_script,2013-04-06 18:38:00,
2013-04-06 14:44:00,38.1,-99.9,0.00,South,180,8.9,11.0,-99,0.00,NA,NA,-99.99,WeatherLink_script,2013-04-06 18:44:00,
2013-04-06 14:49:00,40.5,-99.9,0.00,South,180,4.1,12.0,-99,0.00,NA,NA,-99.99,WeatherLink_script,2013-04-06 18:49:00,
2013-04-06 14:54:00,40.8,-99.9,0.00,South,180,5.6,12.0,-99,0.00,NA,NA,-99.99,WeatherLink_script,2013-04-06 18:54:00,
2013-04-06 15:00:00,39.0,-99.9,0.00,South,180,5.0,12.0,-99,0.00,NA,NA,-99.99,WeatherLink_script,2013-04-06 19:00:00,
2013-04-06 15:05:00,38.4,-99.9,0.00,South,180,7.4,11.0,-99,0.00,NA,NA,-99.99,WeatherLink_script,2013-04-06 19:05:00,
2013-04-06 15:10:00,40.2,-99.9,0.00,South,180,4.8,11.0,-99,0.00,NA,NA,-99.99,WeatherLink_script,2013-04-06 19:10:00,
2013-04-06 15:16:00,42.0,-99.9,0.00,South,180,3.1,11.0,-99,0.00,NA,NA,-99.99,WeatherLink_script,2013-04-06 19:16:00,
2013-04-06 15:24:00,42.0,-99.9,0.00,South,180,6.1,8.0,-99,0.00,NA,NA,-99.99,WeatherLink_script,2013-04-06 19:24:00,
2013-04-06 15:29:00,40.4,-99.9,0.00,South,180,4.2,9.0,-99,0.00,NA,NA,-99.99,WeatherLink_script,2013-04-06 19:29:00,
2013-04-06 15:35:00,41.3,-99.9,0.00,South,180,3.4,9.0,-99,0.00,NA,NA,-99.99,WeatherLink_script,2013-04-06 19:35:00,
2013-04-06 15:40:00,40.3,-99.9,0.00,South,180,4.3,9.0,-99,0.00,NA,NA,-99.99,WeatherLink_script,2013-04-06 19:40:00,
2013-04-06 15:45:00,43.4,-99.9,0.00,South,180,3.2,4.0,-99,0.00,NA,NA,-99.99,WeatherLink_script,2013-04-06 19:45:00,
2013-04-06 15:54:00,42.2,-99.9,0.00,South,180,3.9,8.0,-99,0.00,NA,NA,-99.99,WeatherLink_script,2013-04-06 19:54:00,
2013-04-06 15:59:00,41.2,-99.9,0.00,South,180,4.2,8.0,-99,0.00,NA,NA,-99.99,WeatherLink_script,2013-04-06 19:59:00,
2013-04-06 16:08:00,42.3,-99.9,0.00,South,180,5.0,8.0,-99,0.00,NA,NA,-99.99,WeatherLink_script,2013-04-06 20:08:00,
2013-04-06 16:13:00,42.3,-99.9,0.00,South,180,2.5,7.0,-99,0.00,NA,NA,-99.99,WeatherLink_script,2013-04-06 20:13:00,
2013-04-06 16:19:00,42.3,-99.9,0.00,South,180,4.9,8.0,-99,0.00,NA,NA,-99.99,WeatherLink_script,2013-04-06 20:19:00,
2013-04-06 16:24:00,42.0,-99.9,0.00,South,180,1.2,9.0,-99,0.00,NA,NA,-99.99,WeatherLink_script,2013-04-06 20:24:00,
2013-04-06 16:29:00,43.8,-99.9,0.00,South,180,3.4,9.0,-99,0.00,NA,NA,-99.99,WeatherLink_script,2013-04-06 20:29:00,
2013-04-06 16:35:00,40.7,-99.9,0.00,South,180,3.3,9.0,-99,0.00,NA,NA,-99.99,WeatherLink_script,2013-04-06 20:35:00,
2013-04-06 16:40:00,40.5,-99.9,0.00,South,180,3.5,7.0,-99,0.00,NA,NA,-99.99,WeatherLink_script,2013-04-06 20:40:00,
2013-04-06 16:45:00,39.5,-99.9,0.00,South,180,4.6,7.0,-99,0.00,NA,NA,-99.99,WeatherLink_script,2013-04-06 20:45:00,
2013-04-06 16:54:00,38.8,-99.9,0.00,South,180,5.6,9.0,-99,0.00,NA,NA,-99.99,WeatherLink_script,2013-04-06 20:54:00,
2013-04-06 17:00:00,39.7,-99.9,0.00,South,180,3.4,9.0,-99,0.00,NA,NA,-99.99,WeatherLink_script,2013-04-06 21:00:00,
2013-04-06 17:05:00,38.6,-99.9,0.00,South,180,5.6,9.0,-99,0.00,NA,NA,-99.99,WeatherLink_script,2013-04-06 21:05:00,
2013-04-06 17:10:00,37.9,-99.9,0.00,South,180,6.2,8.0,-99,0.00,NA,NA,-99.99,WeatherLink_script,2013-04-06 21:10:00,
2013-04-06 17:18:00,37.6,-99.9,0.00,South,180,5.8,8.0,-99,0.00,NA,NA,-99.99,WeatherLink_script,2013-04-06 21:18:00,
2013-04-06 17:27:00,37.9,-99.9,0.00,South,180,3.4,10.0,-99,0.00,NA,NA,-99.99,WeatherLink_script,2013-04-06 21:27:00,
2013-04-06 17:35:00,38.1,-99.9,0.00,South,180,4.6,10.0,-99,0.00,NA,NA,-99.99,WeatherLink_script,2013-04-06 21:35:00,
2013-04-06 17:40:00,38.7,-99.9,0.00,South,180,4.4,7.0,-99,0.00,NA,NA,-99.99,WeatherLink_script,2013-04-06 21:40:00,
2013-04-06 17:45:00,39.2,-99.9,0.00,South,180,2.6,7.0,-99,0.00,NA,NA,-99.99,WeatherLink_script,2013-04-06 21:45:00,
2013-04-06 17:50:00,39.8,-99.9,0.00,South,180,2.0,7.0,-99,0.00,NA,NA,-99.99,WeatherLink_script,2013-04-06 21:50:00,
2013-04-06 17:56:00,39.1,-99.9,0.00,South,180,5.0,7.0,-99,0.00,NA,NA,-99.99,WeatherLink_script,2013-04-06 21:56:00,
2013-04-06 18:01:00,39.5,-99.9,0.00,South,180,3.3,5.0,-99,0.00,NA,NA,-99.99,WeatherLink_script,2013-04-06 22:01:00,
2013-04-06 18:06:00,39.2,-99.9,0.00,South,180,2.4,6.0,-99,0.00,NA,NA,-99.99,WeatherLink_script,2013-04-06 22:06:00,
2013-04-06 18:12:00,39.7,-99.9,0.00,South,180,0.5,6.0,-99,0.00,NA,NA,-99.99,WeatherLink_script,2013-04-06 22:12:00,
2013-04-06 18:17:00,38.3,-99.9,0.00,South,180,4.0,6.0,-99,0.00,NA,NA,-99.99,WeatherLink_script,2013-04-06 22:17:00,
2013-04-06 18:22:00,37.6,-99.9,0.00,South,180,2.3,3.0,-99,0.00,NA,NA,-99.99,WeatherLink_script,2013-04-06 22:22:00,
2013-04-06 18:28:00,36.9,-99.9,0.00,South,180,2.1,3.0,-99,0.00,NA,NA,-99.99,WeatherLink_script,2013-04-06 22:28:00,
2013-04-06 18:33:00,36.5,-99.9,0.00,South,180,2.7,3.0,-99,0.00,NA,NA,-99.99,WeatherLink_script,2013-04-06 22:33:00,
2013-04-06 18:38:00,36.1,-99.9,0.00,South,180,2.8,4.0,-99,0.00,NA,NA,-99.99,WeatherLink_script,2013-04-06 22:38:00,
2013-04-06 18:44:00,35.7,-99.9,0.00,South,180,1.7,4.0,-99,0.00,NA,NA,-99.99,WeatherLink_script,2013-04-06 22:44:00,
2013-04-06 18:49:00,35.1,-99.9,0.00,South,180,1.5,4.0,-99,0.00,NA,NA,-99.99,WeatherLink_script,2013-04-06 22:49:00,
2013-04-06 18:54:00,33.8,-99.9,0.00,South,180,0.8,1.0,-99,0.00,NA,NA,-99.99,WeatherLink_script,2013-04-06 22:54:00,
2013-04-06 19:00:00,33.2,-99.9,0.00,South,180,0.1,1.0,-99,0.00,NA,NA,-99.99,WeatherLink_script,2013-04-06 23:00:00,
2013-04-06 19:05:00,32.6,-99.9,0.00,South,180,0.0,1.0,-99,0.00,NA,NA,-99.99,WeatherLink_script,2013-04-06 23:05:00,
2013-04-06 19:11:00,32.3,-99.9,0.00,South,180,0.0,0.0,-99,0.00,NA,NA,-99.99,WeatherLink_script,2013-04-06 23:11:00,
2013-04-06 19:16:00,31.7,-99.9,0.00,South,180,0.0,0.0,-99,0.00,NA,NA,-99.99,WeatherLink_script,2013-04-06 23:16:00,
2013-04-06 19:22:00,31.1,-99.9,0.00,South,180,0.0,0.0,-99,0.00,NA,NA,-99.99,WeatherLink_script,2013-04-06 23:22:00,
2013-04-06 19:27:00,30.5,-99.9,0.00,South,180,0.0,0.0,-99,0.00,NA,NA,-99.99,WeatherLink_script,2013-04-06 23:27:00,
2013-04-06 19:32:00,29.7,-99.9,0.00,South,180,0.0,0.0,-99,0.00,NA,NA,-99.99,WeatherLink_script,2013-04-06 23:32:00,
2013-04-06 19:37:00,29.4,-99.9,0.00,South,180,0.0,0.0,-99,0.00,NA,NA,-99.99,WeatherLink_script,2013-04-06 23:37:00,
2013-04-06 19:42:00,29.5,-99.9,0.00,South,180,0.0,0.0,-99,0.00,NA,NA,-99.99,WeatherLink_script,2013-04-06 23:42:00,
2013-04-06 19:48:00,29.2,-99.9,0.00,South,180,0.0,0.0,-99,0.00,NA,NA,-99.99,WeatherLink_script,2013-04-06 23:48:00,
2013-04-06 19:53:00,28.1,-99.9,0.00,South,180,0.0,0.0,-99,0.00,NA,NA,-99.99,WeatherLink_script,2013-04-06 23:53:00,
2013-04-06 20:01:00,27.4,-99.9,0.00,South,180,0.1,0.0,-99,0.00,NA,NA,-99.99,WeatherLink_script,2013-04-07 00:01:00,
2013-04-06 20:07:00,26.3,-99.9,0.00,South,180,0.0,0.0,-99,0.00,NA,NA,-99.99,WeatherLink_script,2013-04-07 00:07:00,
2013-04-06 20:12:00,25.8,-99.9,0.00,South,180,0.0,0.0,-99,0.00,NA,NA,-99.99,WeatherLink_script,2013-04-07 00:12:00,
2013-04-06 20:20:00,25.6,-99.9,0.00,South,180,0.0,0.0,-99,0.00,NA,NA,-99.99,WeatherLink_script,2013-04-07 00:20:00,
2013-04-06 20:25:00,25.3,-99.9,0.00,South,180,0.0,0.0,-99,0.00,NA,NA,-99.99,WeatherLink_script,2013-04-07 00:25:00,
2013-04-06 20:31:00,25.3,-99.9,0.00,South,180,0.0,0.0,-99,0.00,NA,NA,-99.99,WeatherLink_script,2013-04-07 00:31:00,
2013-04-06 20:36:00,25.1,-99.9,0.00,South,180,0.0,0.0,-99,0.00,NA,NA,-99.99,WeatherLink_script,2013-04-07 00:36:00,
2013-04-06 20:44:00,24.8,-99.9,0.00,South,180,0.0,0.0,-99,0.00,NA,NA,-99.99,WeatherLink_script,2013-04-07 00:44:00,
2013-04-06 20:50:00,24.7,-99.9,0.00,South,180,0.0,0.0,-99,0.00,NA,NA,-99.99,WeatherLink_script,2013-04-07 00:50:00,
2013-04-06 20:55:00,24.6,-99.9,0.00,South,180,0.0,0.0,-99,0.00,NA,NA,-99.99,WeatherLink_script,2013-04-07 00:55:00,
2013-04-06 21:00:00,24.2,-99.9,0.00,South,180,0.0,0.0,-99,0.00,NA,NA,-99.99,WeatherLink_script,2013-04-07 01:00:00,
2013-04-06 21:08:00,24.9,-99.9,0.00,South,180,0.0,0.0,-99,0.00,NA,NA,-99.99,WeatherLink_script,2013-04-07 01:08:00,
2013-04-06 21:17:00,24.3,-99.9,0.00,South,180,0.0,0.0,-99,0.00,NA,NA,-99.99,WeatherLink_script,2013-04-07 01:17:00,
2013-04-06 21:22:00,24.2,-99.9,0.00,South,180,0.0,0.0,-99,0.00,NA,NA,-99.99,WeatherLink_script,2013-04-07 01:22:00,
2013-04-06 21:30:00,24.7,-99.9,0.00,South,180,0.0,0.0,-99,0.00,NA,NA,-99.99,WeatherLink_script,2013-04-07 01:30:00,
2013-04-06 21:35:00,24.5,-99.9,0.00,South,180,0.0,0.0,-99,0.00,NA,NA,-99.99,WeatherLink_script,2013-04-07 01:35:00,
2013-04-06 21:41:00,24.3,-99.9,0.00,South,180,0.0,0.0,-96,0.00,NA,NA,-99.99,WeatherLink_script,2013-04-07 01:41:00,
2013-04-06 21:46:00,23.7,-99.9,0.00,South,180,0.0,0.0,-99,0.00,NA,NA,-99.99,WeatherLink_script,2013-04-07 01:46:00,
2013-04-06 21:54:00,23.3,-99.9,0.00,South,180,0.0,0.0,-99,0.00,NA,NA,-99.99,WeatherLink_script,2013-04-07 01:54:00,
2013-04-06 21:59:00,22.9,-99.9,0.00,South,180,0.0,0.0,-99,0.00,NA,NA,-99.99,WeatherLink_script,2013-04-07 01:59:00,
2013-04-06 22:05:00,22.7,-99.9,0.00,South,180,0.0,0.0,-99,0.00,NA,NA,-99.99,WeatherLink_script,2013-04-07 02:05:00,
2013-04-06 22:10:00,22.8,-99.9,0.00,South,180,0.0,0.0,-99,0.00,NA,NA,-99.99,WeatherLink_script,2013-04-07 02:10:00,
2013-04-06 22:15:00,22.7,-99.9,0.00,South,180,0.0,0.0,-99,0.00,NA,NA,-99.99,WeatherLink_script,2013-04-07 02:15:00,
2013-04-06 22:21:00,22.5,-99.9,0.00,South,180,0.0,0.0,-99,0.00,NA,NA,-99.99,WeatherLink_script,2013-04-07 02:21:00,
2013-04-06 22:27:00,23.0,-99.9,0.00,South,180,0.0,0.0,-99,0.00,NA,NA,-99.99,WeatherLink_script,2013-04-07 02:27:00,
2013-04-06 22:32:00,23.3,-99.9,0.00,South,180,0.0,0.0,-99,0.00,NA,NA,-99.99,WeatherLink_script,2013-04-07 02:32:00,
2013-04-06 22:37:00,23.8,-99.9,0.00,South,180,0.0,0.0,-99,0.00,NA,NA,-99.99,WeatherLink_script,2013-04-07 02:37:00,
2013-04-06 22:43:00,24.1,-99.9,0.00,South,180,0.0,0.0,-99,0.00,NA,NA,-99.99,WeatherLink_script,2013-04-07 02:43:00,
2013-04-06 22:48:00,24.4,-99.9,0.00,South,180,0.0,0.0,-99,0.00,NA,NA,-99.99,WeatherLink_script,2013-04-07 02:48:00,
2013-04-06 22:54:00,24.5,-99.9,0.00,South,180,0.0,0.0,-99,0.00,NA,NA,-99.99,WeatherLink_script,2013-04-07 02:54:00,
2013-04-06 23:00:00,24.5,-99.9,0.00,South,180,0.0,0.0,-99,0.00,NA,NA,-99.99,WeatherLink_script,2013-04-07 03:00:00,
2013-04-06 23:05:00,24.5,-99.9,0.00,South,180,0.0,0.0,-99,0.00,NA,NA,-99.99,WeatherLink_script,2013-04-07 03:05:00,
2013-04-06 23:11:00,24.6,-99.9,0.00,South,180,0.0,0.0,-99,0.00,NA,NA,-99.99,WeatherLink_script,2013-04-07 03:11:00,
2013-04-06 23:19:00,25.2,-99.9,0.00,South,180,0.0,0.0,-99,0.00,NA,NA,-99.99,WeatherLink_script,2013-04-07 03:19:00,
2013-04-06 23:24:00,25.3,-99.9,0.00,South,180,0.0,0.0,-99,0.00,NA,NA,-99.99,WeatherLink_script,2013-04-07 03:24:00,
2013-04-06 23:29:00,25.5,-99.9,0.00,South,180,0.0,0.0,-99,0.00,NA,NA,-99.99,WeatherLink_script,2013-04-07 03:29:00,
2013-04-06 23:35:00,25.6,-99.9,0.00,South,180,0.0,0.0,-99,0.00,NA,NA,-99.99,WeatherLink_script,2013-04-07 03:35:00,
2013-04-06 23:40:00,25.5,-99.9,0.00,South,180,0.0,0.0,-99,0.00,NA,NA,-99.99,WeatherLink_script,2013-04-07 03:40:00,
2013-04-06 23:46:00,25.4,-99.9,0.00,South,180,0.7,1.0,-99,0.00,NA,NA,-99.99,WeatherLink_script,2013-04-07 03:46:00,
2013-04-06 23:54:00,25.1,-99.9,0.00,South,180,0.1,1.0,-99,0.00,NA,NA,-99.99,WeatherLink_script,2013-04-07 03:54:00,
2013-04-06 23:59:00,25.0,-99.9,0.00,South,180,0.0,1.0,-99,0.00,NA,NA,-99.99,WeatherLink_script,2013-04-07 03:59:00,